User: anonymous   Login
Location: Fort Wayne
(41.1310°N, 85.1290°W)
Time: 20:26:57
(UTC-04:00)
Language:

Oscar 19 - Orbit

View from above orbital plane
View from above orbital plane
View from above satellite
View from above satellite

Ground track
Ground track

The orbit data is extracted from the following two-line orbital elements,

1 20442U 90005G   16127.79443475  .00000034  00000-0  28323-4 0  9995
2 20442  98.5417  63.3169 0010576 269.1177  90.8795 14.32813457373423
Epoch (UTC): 06 May 2016 19:03:59
Eccentricity: 0.0010576
inclination: 98.5417°
perigee height: 775 km
apogee height: 790 km
right ascension of ascending node: 63.3169°
argument of perigee: 269.1177°
revolutions per day: 14.32813457
mean anomaly at epoch: 90.8795°
orbit number at epoch: 37342

The dashed part of the orbit path shows where the satellite is in the earth's shadow,  

DLR